Tracking 18840 objects as of 18-November-2017
HD Live streaming from Space Station
objects crossing your sky now

FENGYUN 1C DEB

Track FENGYUN 1C DEB now!
10-day predictions


NORAD ID: 31981
Int'l Code: 1999-025CPJ
Perigee: 852.8 km
Apogee: 1,445.1 km
Inclination: 98.4 °
Period: 108.2 minutes
Semi major axis: 7519 km
RCS: 0.0133 m2 (small)
Launch date: May 10, 1999
Source: People's Republic of China (PRC)
Launch site: Taiyaun Space Center, China (TSC)

Note: This is SATELLITE DEBRIS
aabbcc
Your satellite tracking list
Your tracking list is empty




NASA's NSSDC Master Catalog

Two Line Element Set (TLE):
1 31981U 99025CPJ 17319.96135962  .00000711  00000-0  10160-2 0  9998
2 31981  98.4418   9.6197 0393793 347.2207  11.9161 13.31307892504600
Source of the keplerian elements: AFSPC